Tracking 30970 objects as of 3-Jul-2025
HD Live streaming from Space Station
objects crossing your sky now

OBJECT L

Track OBJECT L now!
10-day predictions


NORAD ID: 51834
Int'l Code: 2022-019L
Perigee: 439.1 km
Apogee: 446.2 km
Inclination: 97.4 °
Period: 93.3 minutes
Semi major axis: 6813 km
RCS: Unknown
Launch date: February 27, 2022
Source: People's Republic of China (PRC)
Launch site: Wenchang Satellite Launch Center (WSC)
Your satellite tracking list
Your tracking list is empty




NASA's NSSDC Master Catalog

Two Line Element Set (TLE):
1 51834U 22019L   25183.90937686  .00022005  00000-0  49041-3 0  9992
2 51834  97.3940 264.4958 0005204 320.6946  39.3923 15.43596712185695
Source of the keplerian elements: AFSPC